DLH42T EDDF-KDEN

Flight info

Callsign DLH42T
Flight time N/A
Altitude 34000
Route OBOKA3M/25C OBOKA Z28 DIBIR DCT BUDIP DCT MIMVA DCT GETNO DCT NIBOG DCT PIKIL/M082F360 NATA URTAK/N0478F360 DCT LAKES DCT 5630N07000W/N0480F380 5330N08000W 4930N09000W DCT KP84A DCT NYTRO AALLE4
Aircraft A346/H-SDE2E3FGHIJ3J4J5M1RWXY/LB1D1

Departure

Time 2026-05-06 09:11
Airport Frankfurt Main Airport (EDDF)

Arrival

Time N/A
Airport Denver International Airport (KDEN)
Time Latitude Longitude Altitude Speed Heading
2026-05-06 08:28 50.04723 8.56277 364 ft 0 kts 340°
2026-05-06 08:56 50.04716 8.56281 364 ft 4 kts 340°
2026-05-06 08:57 50.04690 8.56294 366 ft 4 kts 341°
2026-05-06 08:57 50.04665 8.56309 367 ft 4 kts 333°
2026-05-06 08:57 50.04647 8.56329 369 ft 4 kts 305°
2026-05-06 08:57 50.04643 8.56338 370 ft 4 kts 257°
2026-05-06 08:58 50.04641 8.56330 369 ft 4 kts 249°
2026-05-06 08:58 50.04632 8.56291 368 ft 4 kts 249°
2026-05-06 08:58 50.04623 8.56251 367 ft 4 kts 249°
2026-05-06 08:58 50.04613 8.56212 370 ft 4 kts 249°
2026-05-06 08:59 50.04604 8.56172 365 ft 4 kts 249°
2026-05-06 08:59 50.04595 8.56133 368 ft 4 kts 249°
2026-05-06 08:59 50.04586 8.56095 369 ft 2 kts 249°
2026-05-06 08:59 50.04586 8.56092 370 ft 0 kts 249°
2026-05-06 09:03 50.04585 8.56090 364 ft 1 kts 249°
2026-05-06 09:03 50.04581 8.56072 364 ft 4 kts 249°
2026-05-06 09:03 50.04566 8.56015 367 ft 7 kts 243°
2026-05-06 09:03 50.04528 8.55962 371 ft 8 kts 203°
2026-05-06 09:04 50.04472 8.55929 369 ft 9 kts 198°
2026-05-06 09:04 50.04410 8.55906 370 ft 10 kts 182°
2026-05-06 09:04 50.04336 8.55933 367 ft 11 kts 160°
2026-05-06 09:04 50.04294 8.55958 367 ft 6 kts 153°
2026-05-06 09:05 50.04269 8.56016 369 ft 8 kts 96°
2026-05-06 09:05 50.04280 8.56108 366 ft 9 kts 73°
2026-05-06 09:05 50.04278 8.56203 367 ft 10 kts 131°
2026-05-06 09:05 50.04206 8.56260 364 ft 12 kts 158°
2026-05-06 09:06 50.04150 8.56350 366 ft 13 kts 90°
2026-05-06 09:06 50.04176 8.56486 367 ft 13 kts 70°
2026-05-06 09:06 50.04210 8.56626 367 ft 13 kts 70°
2026-05-06 09:06 50.04241 8.56761 369 ft 13 kts 69°
2026-05-06 09:07 50.04275 8.56902 370 ft 17 kts 69°
2026-05-06 09:07 50.04330 8.57131 372 ft 26 kts 69°
2026-05-06 09:07 50.04396 8.57406 374 ft 27 kts 70°
2026-05-06 09:07 50.04462 8.57681 375 ft 27 kts 70°
2026-05-06 09:08 50.04528 8.57960 376 ft 28 kts 70°
2026-05-06 09:08 50.04597 8.58248 376 ft 28 kts 70°
2026-05-06 09:08 50.04652 8.58481 380 ft 3 kts 70°
2026-05-06 09:08 50.04654 8.58520 381 ft 3 kts 104°
2026-05-06 09:09 50.04639 8.58554 380 ft 5 kts 137°
2026-05-06 09:09 50.04620 8.58569 379 ft 2 kts 156°
2026-05-06 09:09 50.04577 8.58597 383 ft 7 kts 159°
2026-05-06 09:09 50.04531 8.58623 382 ft 6 kts 170°
2026-05-06 09:10 50.04492 8.58590 382 ft 13 kts 236°
2026-05-06 09:10 50.04394 8.58195 378 ft 66 kts 249°
2026-05-06 09:10 50.04174 8.57276 377 ft 113 kts 249°
2026-05-06 09:10 50.03846 8.55912 363 ft 154 kts 249°
2026-05-06 09:11 50.03435 8.54179 400 ft 180 kts 247°
2026-05-06 09:11 50.03054 8.52429 1005 ft 166 kts 250°
2026-05-06 09:11 50.02721 8.50643 1285 ft 176 kts 242°
2026-05-06 09:11 50.01890 8.49255 1599 ft 181 kts 205°
2026-05-06 09:12 50.00667 8.48708 2048 ft 184 kts 195°
2026-05-06 09:12 49.99385 8.48264 2332 ft 193 kts 196°
2026-05-06 09:12 49.98058 8.47787 2683 ft 198 kts 196°
2026-05-06 09:12 49.96702 8.47290 3137 ft 200 kts 197°
2026-05-06 09:13 49.95358 8.46726 3563 ft 202 kts 199°
2026-05-06 09:13 49.93963 8.46083 3831 ft 215 kts 199°
2026-05-06 09:13 49.92486 8.45383 4044 ft 229 kts 204°
2026-05-06 09:13 49.91149 8.44007 4360 ft 235 kts 231°
2026-05-06 09:14 49.90236 8.41921 5015 ft 233 kts 239°
2026-05-06 09:14 49.89408 8.39742 5626 ft 235 kts 239°
2026-05-06 09:14 49.88727 8.37429 6204 ft 237 kts 256°
2026-05-06 09:14 49.88571 8.34846 6664 ft 247 kts 271°
2026-05-06 09:15 49.88705 8.32101 6987 ft 263 kts 273°
2026-05-06 09:15 49.88881 8.29244 7495 ft 268 kts 274°
2026-05-06 09:15 49.89326 8.26415 8096 ft 273 kts 290°
2026-05-06 09:15 49.90279 8.23831 8707 ft 278 kts 302°
2026-05-06 09:16 49.91445 8.21397 9292 ft 282 kts 303°
2026-05-06 09:16 49.92639 8.18959 9886 ft 286 kts 303°
2026-05-06 09:16 49.93923 8.16524 10258 ft 299 kts 309°
2026-05-06 09:16 49.95408 8.14192 10513 ft 314 kts 315°
2026-05-06 09:17 49.97092 8.11899 10766 ft 329 kts 316°
2026-05-06 09:17 49.98878 8.09532 11043 ft 344 kts 316°
2026-05-06 09:17 50.00741 8.07063 11306 ft 358 kts 316°
2026-05-06 09:17 50.02682 8.04483 11570 ft 373 kts 316°
2026-05-06 09:18 50.04679 8.01818 11913 ft 383 kts 316°
2026-05-06 09:18 50.06716 7.99095 12510 ft 387 kts 316°
2026-05-06 09:18 50.08769 7.96345 13145 ft 389 kts 316°
2026-05-06 09:18 50.10834 7.93573 13697 ft 393 kts 316°
2026-05-06 09:19 50.12887 7.90812 14200 ft 397 kts 316°
2026-05-06 09:19 50.14977 7.87997 14739 ft 400 kts 316°
2026-05-06 09:19 50.17097 7.85139 15298 ft 402 kts 316°
2026-05-06 09:19 50.19220 7.82273 15871 ft 404 kts 316°
2026-05-06 09:20 50.21359 7.79380 16397 ft 408 kts 316°
2026-05-06 09:20 50.23536 7.76502 16891 ft 412 kts 319°
2026-05-06 09:20 50.25901 7.73909 17397 ft 418 kts 325°
2026-05-06 09:20 50.28474 7.71702 17884 ft 424 kts 332°
2026-05-06 09:21 50.31216 7.69765 18327 ft 428 kts 334°
2026-05-06 09:21 50.33973 7.67918 18745 ft 431 kts 334°
2026-05-06 09:21 50.36741 7.66063 19208 ft 433 kts 334°
2026-05-06 09:21 50.39518 7.64176 19648 ft 435 kts 334°
2026-05-06 09:22 50.42267 7.62291 20107 ft 438 kts 333°
2026-05-06 09:22 50.45072 7.60361 20563 ft 440 kts 333°
2026-05-06 09:22 50.47885 7.58421 21003 ft 442 kts 333°
2026-05-06 09:22 50.50712 7.56469 21431 ft 445 kts 333°
2026-05-06 09:23 50.53559 7.54447 21849 ft 447 kts 331°
2026-05-06 09:23 50.56325 7.52201 22262 ft 448 kts 328°
2026-05-06 09:23 50.59022 7.49686 22662 ft 450 kts 324°
2026-05-06 09:23 50.61660 7.47020 23090 ft 452 kts 323°
2026-05-06 09:24 50.64297 7.44286 23493 ft 454 kts 324°
2026-05-06 09:24 50.66934 7.41544 23841 ft 456 kts 326°
2026-05-06 09:24 50.69600 7.38803 24197 ft 457 kts 326°
2026-05-06 09:24 50.72222 7.35933 24532 ft 459 kts 321°
2026-05-06 09:25 50.74628 7.32571 24877 ft 460 kts 314°
2026-05-06 09:25 50.76743 7.28777 25197 ft 461 kts 307°
2026-05-06 09:25 50.78643 7.24672 25508 ft 463 kts 304°
2026-05-06 09:25 50.80494 7.20484 25807 ft 465 kts 304°
2026-05-06 09:26 50.82349 7.16254 26110 ft 468 kts 304°
2026-05-06 09:26 50.84223 7.11995 26416 ft 470 kts 304°
2026-05-06 09:26 50.86099 7.07752 26712 ft 473 kts 304°
2026-05-06 09:26 50.87999 7.03455 27048 ft 476 kts 305°
2026-05-06 09:27 50.89903 6.99146 27265 ft 479 kts 305°
2026-05-06 09:27 50.91846 6.94764 27551 ft 481 kts 305°
2026-05-06 09:27 50.93772 6.90413 27912 ft 482 kts 305°
2026-05-06 09:27 50.95726 6.85991 28234 ft 484 kts 305°
2026-05-06 09:28 50.97014 6.83070 28429 ft 485 kts 305°
2026-05-06 09:28 50.98952 6.78666 28660 ft 488 kts 306°
2026-05-06 09:28 51.01528 6.72804 29031 ft 490 kts 305°
2026-05-06 09:28 51.03479 6.68355 29367 ft 491 kts 305°
2026-05-06 09:29 51.05452 6.63842 29634 ft 493 kts 305°
2026-05-06 09:29 51.06774 6.60817 29793 ft 495 kts 305°
2026-05-06 09:29 51.08734 6.56325 29949 ft 498 kts 305°
2026-05-06 09:29 51.10715 6.51775 30121 ft 500 kts 305°
2026-05-06 09:30 51.12701 6.47206 30331 ft 501 kts 305°
2026-05-06 09:30 51.14693 6.42616 30531 ft 502 kts 304°
2026-05-06 09:30 51.16681 6.38025 30745 ft 503 kts 304°
2026-05-06 09:30 51.18672 6.33422 30965 ft 503 kts 304°
2026-05-06 09:31 51.20656 6.28821 31244 ft 502 kts 304°
2026-05-06 09:31 51.22629 6.24238 31456 ft 500 kts 304°
2026-05-06 09:31 51.24605 6.19639 31624 ft 500 kts 303°
2026-05-06 09:31 51.26541 6.15117 31860 ft 499 kts 303°
2026-05-06 09:32 51.28499 6.10520 32132 ft 498 kts 303°
2026-05-06 09:32 51.30413 6.05885 32397 ft 498 kts 302°
2026-05-06 09:32 51.32303 6.01235 32638 ft 497 kts 302°
2026-05-06 09:32 51.34214 5.96632 32921 ft 496 kts 304°
2026-05-06 09:33 51.36250 5.92191 33213 ft 494 kts 307°
2026-05-06 09:33 51.38418 5.87933 33501 ft 493 kts 310°
2026-05-06 09:33 51.40728 5.83849 33765 ft 493 kts 313°
2026-05-06 09:34 51.45691 5.76259 33871 ft 494 kts 317°
2026-05-06 09:34 51.50855 5.68934 33872 ft 494 kts 318°
2026-05-06 09:35 51.55978 5.61663 33847 ft 494 kts 317°
2026-05-06 09:35 51.61127 5.54309 33873 ft 495 kts 317°
2026-05-06 09:36 51.66253 5.46950 33851 ft 494 kts 317°
2026-05-06 09:36 51.71383 5.39555 33851 ft 493 kts 317°
2026-05-06 09:37 51.76520 5.32128 33852 ft 494 kts 317°
2026-05-06 09:37 51.81653 5.24684 33855 ft 494 kts 317°
2026-05-06 09:38 51.86783 5.17234 33859 ft 496 kts 317°
2026-05-06 09:38 51.91920 5.09737 33856 ft 494 kts 317°
2026-05-06 09:39 51.97823 5.01100 33865 ft 495 kts 317°
2026-05-06 09:39 52.15137 4.75561 33892 ft 492 kts 316°
2026-05-06 09:41 52.19344 4.69312 33898 ft 490 kts 316°
2026-05-06 09:42 52.34556 4.46577 33896 ft 492 kts 315°
2026-05-06 09:42 52.44715 4.31267 33908 ft 491 kts 316°
2026-05-06 09:43 52.54916 4.15814 33920 ft 489 kts 316°
2026-05-06 09:43 52.64951 4.00510 33935 ft 491 kts 315°
2026-05-06 09:44 52.74935 3.85168 33936 ft 488 kts 315°
2026-05-06 09:44 52.84887 3.69761 33934 ft 487 kts 314°
2026-05-06 09:45 52.95600 3.53100 33969 ft 488 kts 314°
2026-05-06 09:45 53.05299 3.37136 33944 ft 481 kts 307°
2026-05-06 09:46 53.09190 3.27569 33945 ft 478 kts 296°
2026-05-06 09:46 53.11958 3.17237 33939 ft 475 kts 287°
2026-05-06 09:46 53.13793 3.06137 33943 ft 473 kts 282°
2026-05-06 09:47 53.15349 2.95550 33969 ft 473 kts 282°
2026-05-06 09:47 53.16925 2.84879 33965 ft 473 kts 282°
2026-05-06 09:48 53.18502 2.74207 33967 ft 473 kts 282°
2026-05-06 09:48 53.20073 2.63526 33975 ft 473 kts 282°
2026-05-06 09:49 53.21635 2.52845 33976 ft 473 kts 282°
2026-05-06 09:49 53.23189 2.42138 33977 ft 473 kts 282°
2026-05-06 09:50 53.24735 2.31445 33976 ft 473 kts 282°
2026-05-06 09:50 53.26262 2.20812 33978 ft 473 kts 282°
2026-05-06 09:51 53.27788 2.10107 33979 ft 472 kts 282°
2026-05-06 09:51 53.29301 1.99413 33991 ft 471 kts 282°
2026-05-06 09:52 53.30798 1.88748 33986 ft 470 kts 282°
2026-05-06 09:52 53.32286 1.78079 33986 ft 470 kts 282°
2026-05-06 09:53 53.33762 1.67419 33986 ft 470 kts 282°
2026-05-06 09:53 53.35232 1.56729 33989 ft 470 kts 282°
2026-05-06 09:54 53.36689 1.46066 33990 ft 468 kts 281°
2026-05-06 09:54 53.38131 1.35419 33989 ft 467 kts 281°
2026-05-06 09:55 53.39554 1.24839 33988 ft 467 kts 281°
2026-05-06 09:55 53.40975 1.14192 33994 ft 467 kts 281°
2026-05-06 09:56 53.42387 1.03545 33994 ft 467 kts 281°
2026-05-06 09:56 53.43787 0.92924 34001 ft 464 kts 281°
2026-05-06 09:57 53.45170 0.82335 34008 ft 463 kts 281°
2026-05-06 09:57 53.46540 0.71739 34009 ft 465 kts 281°
2026-05-06 09:58 53.47907 0.61129 34016 ft 464 kts 280°
2026-05-06 09:58 53.49261 0.50526 34017 ft 463 kts 280°
2026-05-06 09:59 53.50605 0.39911 34024 ft 464 kts 280°
2026-05-06 09:59 53.51716 0.31094 34024 ft 463 kts 280°
2026-05-06 10:00 53.53258 0.18756 34035 ft 463 kts 280°
2026-05-06 10:00 53.54360 0.09855 34037 ft 463 kts 280°
2026-05-06 10:01 53.55668 -0.00772 34061 ft 463 kts 280°
2026-05-06 10:01 53.56952 -0.11302 34058 ft 461 kts 280°
2026-05-06 10:02 53.58235 -0.21887 34058 ft 461 kts 280°
2026-05-06 10:02 53.59510 -0.32487 34057 ft 461 kts 280°
2026-05-06 10:03 53.60773 -0.43076 34057 ft 461 kts 280°
2026-05-06 10:03 53.62027 -0.53679 34057 ft 461 kts 280°
2026-05-06 10:04 53.63272 -0.64290 34052 ft 460 kts 280°
2026-05-06 10:04 53.64506 -0.74886 34049 ft 460 kts 279°
2026-05-06 10:05 53.65731 -0.85509 34053 ft 460 kts 279°
2026-05-06 10:05 53.66947 -0.96127 34052 ft 460 kts 279°
2026-05-06 10:06 53.68152 -1.06746 34067 ft 460 kts 279°
2026-05-06 10:06 53.69344 -1.17334 34061 ft 458 kts 279°
2026-05-06 10:07 53.70516 -1.27838 34063 ft 458 kts 279°
2026-05-06 10:07 53.71694 -1.38480 34061 ft 458 kts 279°
2026-05-06 10:08 53.72856 -1.49071 34069 ft 458 kts 279°
2026-05-06 10:08 53.74012 -1.59675 34069 ft 457 kts 279°
2026-05-06 10:09 53.75152 -1.70250 34059 ft 457 kts 278°
2026-05-06 10:09 53.76285 -1.80858 34061 ft 457 kts 278°
2026-05-06 10:10 53.77407 -1.91447 34078 ft 457 kts 278°
2026-05-06 10:10 53.78512 -2.01964 34077 ft 457 kts 278°
2026-05-06 10:11 53.79616 -2.12572 34084 ft 456 kts 278°
2026-05-06 10:11 53.80709 -2.23162 34077 ft 456 kts 278°
2026-05-06 10:12 53.81791 -2.33743 34077 ft 455 kts 278°
2026-05-06 10:12 53.82864 -2.44340 34076 ft 455 kts 278°
2026-05-06 10:13 53.83927 -2.54927 34073 ft 455 kts 278°
2026-05-06 10:13 53.84979 -2.65510 34078 ft 455 kts 278°
2026-05-06 10:14 53.86020 -2.76076 34074 ft 454 kts 278°
2026-05-06 10:14 53.87055 -2.86674 34083 ft 454 kts 278°
2026-05-06 10:15 53.88076 -2.97236 34083 ft 453 kts 278°
2026-05-06 10:15 53.89088 -3.07799 34083 ft 453 kts 278°
2026-05-06 10:16 53.90091 -3.18392 34084 ft 454 kts 278°
2026-05-06 10:16 53.91079 -3.28912 34081 ft 454 kts 278°
2026-05-06 10:17 53.92063 -3.39513 34081 ft 454 kts 278°
2026-05-06 10:17 53.93286 -3.50054 34080 ft 455 kts 283°
2026-05-06 10:18 53.95079 -3.60376 34089 ft 456 kts 287°
2026-05-06 10:18 53.97068 -3.70620 34082 ft 456 kts 287°
2026-05-06 10:19 53.99056 -3.80869 34077 ft 456 kts 287°
2026-05-06 10:19 54.01037 -3.91131 34075 ft 456 kts 287°
2026-05-06 10:20 54.03003 -4.01383 34076 ft 456 kts 287°
2026-05-06 10:20 54.04962 -4.11658 34079 ft 456 kts 287°
2026-05-06 10:21 54.06901 -4.21885 34080 ft 456 kts 287°
2026-05-06 10:21 54.08843 -4.32204 34083 ft 457 kts 287°
2026-05-06 10:22 54.10783 -4.42544 34084 ft 457 kts 287°
2026-05-06 10:22 54.12715 -4.52900 34084 ft 457 kts 287°
2026-05-06 10:23 54.14644 -4.63307 34076 ft 457 kts 287°
2026-05-06 10:23 54.16542 -4.73605 34074 ft 457 kts 287°
2026-05-06 10:24 54.18444 -4.83998 34064 ft 459 kts 287°
2026-05-06 10:24 54.20349 -4.94436 34072 ft 459 kts 287°
2026-05-06 10:25 54.22232 -5.04810 34058 ft 459 kts 287°
2026-05-06 10:25 54.24118 -5.15270 34055 ft 459 kts 287°
2026-05-06 10:26 54.25994 -5.25737 34070 ft 459 kts 287°
2026-05-06 10:26 54.27855 -5.36193 34059 ft 459 kts 287°
2026-05-06 10:27 54.29714 -5.46690 34066 ft 459 kts 287°
2026-05-06 10:27 54.31565 -5.57185 34066 ft 459 kts 287°
2026-05-06 10:28 54.33405 -5.67691 34053 ft 459 kts 287°
2026-05-06 10:28 54.35233 -5.78187 34073 ft 459 kts 287°
2026-05-06 10:29 54.37052 -5.88704 34066 ft 459 kts 287°
2026-05-06 10:29 54.38848 -5.99136 34063 ft 458 kts 287°
2026-05-06 10:30 54.40649 -6.09661 34057 ft 458 kts 287°
2026-05-06 10:30 54.42437 -6.20176 34051 ft 458 kts 287°
2026-05-06 10:31 54.44216 -6.30702 34047 ft 458 kts 287°
2026-05-06 10:31 54.45987 -6.41244 34048 ft 458 kts 286°
2026-05-06 10:32 54.47746 -6.51807 34039 ft 459 kts 287°
2026-05-06 10:32 54.49505 -6.62394 34045 ft 459 kts 287°
2026-05-06 10:33 54.51256 -6.73004 34025 ft 459 kts 287°
2026-05-06 10:33 54.52984 -6.83539 34041 ft 459 kts 287°
2026-05-06 10:34 54.54714 -6.94155 34042 ft 459 kts 287°
2026-05-06 10:34 54.56429 -7.04782 34042 ft 458 kts 287°
2026-05-06 10:35 54.58133 -7.15367 34039 ft 457 kts 287°
2026-05-06 10:35 54.59829 -7.25955 34038 ft 457 kts 287°
2026-05-06 10:36 54.61501 -7.36468 34036 ft 457 kts 287°
2026-05-06 10:36 54.63175 -7.47071 34037 ft 457 kts 287°
2026-05-06 10:37 54.64841 -7.57694 34026 ft 457 kts 287°
2026-05-06 10:37 54.66489 -7.68291 34038 ft 455 kts 287°
2026-05-06 10:38 54.68132 -7.78879 34041 ft 455 kts 287°
2026-05-06 10:38 54.69764 -7.89474 34041 ft 455 kts 287°
2026-05-06 10:39 54.71378 -8.00030 34041 ft 455 kts 287°
2026-05-06 10:39 54.72991 -8.10646 34042 ft 455 kts 287°
2026-05-06 10:40 54.74586 -8.21247 34040 ft 453 kts 287°
2026-05-06 10:40 54.76169 -8.31795 34046 ft 452 kts 287°
2026-05-06 10:41 54.77743 -8.42346 34046 ft 452 kts 287°
2026-05-06 10:41 54.79307 -8.52914 34049 ft 452 kts 287°
2026-05-06 10:42 54.80862 -8.63490 34048 ft 452 kts 287°
2026-05-06 10:42 54.82403 -8.74066 34052 ft 451 kts 287°
2026-05-06 10:43 54.83921 -8.84541 34055 ft 449 kts 287°
2026-05-06 10:44 54.86200 -9.00370 34060 ft 449 kts 287°
2026-05-06 10:44 54.87705 -9.10920 34060 ft 449 kts 287°
2026-05-06 10:45 54.89193 -9.21426 34058 ft 449 kts 287°
2026-05-06 10:45 54.90677 -9.31990 34052 ft 449 kts 287°
2026-05-06 10:46 54.92142 -9.42488 34064 ft 445 kts 287°
2026-05-06 10:46 54.93596 -9.52952 34063 ft 444 kts 287°
2026-05-06 10:47 54.95039 -9.63426 34060 ft 444 kts 287°
2026-05-06 10:47 54.96472 -9.73898 34060 ft 444 kts 287°
2026-05-06 10:48 54.97655 -9.82605 34057 ft 444 kts 287°
2026-05-06 10:48 54.99072 -9.93094 34048 ft 444 kts 288°
2026-05-06 10:49 55.00818 -10.03401 34060 ft 441 kts 293°
2026-05-06 10:49 55.02985 -10.13337 34055 ft 440 kts 295°
2026-05-06 10:50 55.05218 -10.23297 34059 ft 440 kts 295°
2026-05-06 10:50 55.07442 -10.33264 34061 ft 440 kts 295°
2026-05-06 10:51 55.09656 -10.43232 34059 ft 438 kts 294°
2026-05-06 10:51 55.11846 -10.53154 34051 ft 436 kts 294°
2026-05-06 10:52 55.14022 -10.63058 34053 ft 436 kts 294°
2026-05-06 10:52 55.16180 -10.72926 34052 ft 436 kts 294°
2026-05-06 10:53 55.18344 -10.82867 34049 ft 436 kts 294°
2026-05-06 10:53 55.20496 -10.92801 34048 ft 436 kts 294°
2026-05-06 10:54 55.22639 -11.02746 34052 ft 436 kts 294°
2026-05-06 10:54 55.24771 -11.12688 34032 ft 436 kts 294°
2026-05-06 10:55 55.26901 -11.22663 34058 ft 435 kts 294°
2026-05-06 10:55 55.28994 -11.32513 34044 ft 432 kts 294°
2026-05-06 10:56 55.31084 -11.42402 34044 ft 431 kts 294°
2026-05-06 10:56 55.33169 -11.52313 34042 ft 431 kts 294°
2026-05-06 10:57 55.35242 -11.62220 34032 ft 431 kts 294°
2026-05-06 10:57 55.37309 -11.72139 34035 ft 431 kts 294°
2026-05-06 10:58 55.39371 -11.82090 34035 ft 431 kts 293°
2026-05-06 10:58 55.41422 -11.92033 34030 ft 431 kts 293°
2026-05-06 10:59 55.43451 -12.01921 34027 ft 431 kts 293°
2026-05-06 10:59 55.45485 -12.11878 34029 ft 431 kts 293°
2026-05-06 11:00 55.47512 -12.21856 34029 ft 431 kts 293°
2026-05-06 11:00 55.49530 -12.31839 34029 ft 431 kts 293°
2026-05-06 11:01 55.51536 -12.41815 34026 ft 431 kts 293°
2026-05-06 11:01 55.53522 -12.51737 34027 ft 431 kts 293°
2026-05-06 11:02 55.55514 -12.61737 34027 ft 431 kts 293°
2026-05-06 11:02 55.57495 -12.71739 34027 ft 431 kts 293°
2026-05-06 11:03 55.59470 -12.81758 34024 ft 431 kts 292°
2026-05-06 11:03 55.61435 -12.91781 34024 ft 431 kts 292°
2026-05-06 11:04 55.63388 -13.01785 34022 ft 427 kts 292°
2026-05-06 11:04 55.65319 -13.11742 34022 ft 426 kts 292°
2026-05-06 11:05 55.67239 -13.21691 34022 ft 426 kts 292°
2026-05-06 11:05 55.69152 -13.31650 34022 ft 426 kts 292°
2026-05-06 11:06 55.71058 -13.41623 34013 ft 426 kts 292°
2026-05-06 11:06 55.72955 -13.51603 34013 ft 426 kts 292°
2026-05-06 11:07 55.74836 -13.61549 34004 ft 426 kts 292°
2026-05-06 11:07 55.76717 -13.71548 34006 ft 426 kts 291°
2026-05-06 11:08 55.78588 -13.81555 34010 ft 426 kts 291°
2026-05-06 11:08 55.80450 -13.91543 34012 ft 424 kts 291°
2026-05-06 11:09 55.82293 -14.01508 34011 ft 423 kts 291°
2026-05-06 11:09 55.84126 -14.11469 34006 ft 423 kts 291°
2026-05-06 11:10 55.85954 -14.21450 34003 ft 423 kts 291°
2026-05-06 11:10 55.87775 -14.31440 33999 ft 424 kts 291°
2026-05-06 11:11 55.89576 -14.41380 33998 ft 424 kts 291°
2026-05-06 11:11 55.91381 -14.51404 33998 ft 424 kts 290°
2026-05-06 11:11 55.92286 -14.56441 34119 ft 427 kts 290°
2026-05-06 11:12 55.93190 -14.61487 34422 ft 426 kts 290°
2026-05-06 11:12 55.94093 -14.66541 34714 ft 425 kts 290°
2026-05-06 11:12 55.94991 -14.71579 34921 ft 426 kts 290°
2026-05-06 11:12 55.95889 -14.76642 35137 ft 428 kts 290°
2026-05-06 11:13 55.96791 -14.81727 35389 ft 428 kts 289°
2026-05-06 11:13 55.97682 -14.86784 35638 ft 427 kts 289°
2026-05-06 11:13 55.98576 -14.91875 35805 ft 428 kts 289°
2026-05-06 11:13 55.99459 -14.96971 35928 ft 430 kts 288°
2026-05-06 11:14 56.00228 -15.02098 35992 ft 432 kts 285°
2026-05-06 11:14 56.01529 -15.12618 35996 ft 433 kts 284°
2026-05-06 11:15 56.02795 -15.23175 35996 ft 433 kts 284°
2026-05-06 11:15 56.04050 -15.33719 35995 ft 433 kts 284°
2026-05-06 11:16 56.05300 -15.44291 35995 ft 435 kts 284°
2026-05-06 11:16 56.06559 -15.55013 35986 ft 443 kts 284°
2026-05-06 11:17 56.07816 -15.65819 35986 ft 444 kts 284°
2026-05-06 11:17 56.09067 -15.76665 35987 ft 444 kts 283°
2026-05-06 11:18 56.10315 -15.87562 35994 ft 443 kts 283°
2026-05-06 11:18 56.11544 -15.98395 35988 ft 442 kts 283°
2026-05-06 11:19 56.12761 -16.09213 35982 ft 442 kts 283°
2026-05-06 11:19 56.13970 -16.20034 35973 ft 442 kts 283°
2026-05-06 11:20 56.15171 -16.30883 35979 ft 443 kts 283°
2026-05-06 11:20 56.16354 -16.41668 35981 ft 443 kts 283°
2026-05-06 11:21 56.17536 -16.52536 35974 ft 443 kts 283°
2026-05-06 11:21 56.18708 -16.63408 35973 ft 443 kts 283°
2026-05-06 11:22 56.19872 -16.74292 35975 ft 443 kts 283°
2026-05-06 11:22 56.21028 -16.85193 35965 ft 444 kts 282°
2026-05-06 11:23 56.22176 -16.96120 35984 ft 444 kts 282°
2026-05-06 11:23 56.23304 -17.06953 35975 ft 442 kts 282°
2026-05-06 11:24 56.24427 -17.17858 35968 ft 442 kts 282°
2026-05-06 11:24 56.25541 -17.28757 35968 ft 442 kts 282°
2026-05-06 11:25 56.26646 -17.39672 35963 ft 442 kts 282°
2026-05-06 11:25 56.27742 -17.50587 35946 ft 443 kts 282°
2026-05-06 11:26 56.28830 -17.61538 35958 ft 444 kts 281°
2026-05-06 11:26 56.29907 -17.72483 35959 ft 444 kts 281°
2026-05-06 11:27 56.30977 -17.83460 35952 ft 444 kts 281°
2026-05-06 11:27 56.32037 -17.94442 35952 ft 444 kts 281°
2026-05-06 11:28 56.33087 -18.05419 35952 ft 444 kts 281°
2026-05-06 11:28 56.34120 -18.16308 35956 ft 442 kts 281°
2026-05-06 11:29 56.35143 -18.27233 35956 ft 442 kts 281°
2026-05-06 11:29 56.36160 -18.38183 35946 ft 442 kts 281°
2026-05-06 11:30 56.37165 -18.49127 35942 ft 442 kts 281°
2026-05-06 11:30 56.38161 -18.60076 35942 ft 442 kts 281°
2026-05-06 11:31 56.39149 -18.71043 35941 ft 442 kts 281°
2026-05-06 11:31 56.40132 -18.82047 35935 ft 443 kts 280°
2026-05-06 11:32 56.41102 -18.93055 35935 ft 443 kts 280°
2026-05-06 11:32 56.42057 -19.04006 35940 ft 443 kts 280°
2026-05-06 11:33 56.43009 -19.15045 35942 ft 443 kts 280°
2026-05-06 11:33 56.43952 -19.26079 35944 ft 442 kts 279°
2026-05-06 11:34 56.44881 -19.37079 35936 ft 441 kts 279°
2026-05-06 11:34 56.45803 -19.48093 35930 ft 443 kts 279°
2026-05-06 11:35 56.46560 -19.57263 35937 ft 443 kts 279°
2026-05-06 11:35 56.47610 -19.70113 35928 ft 443 kts 279°
2026-05-06 11:36 56.48504 -19.81178 35933 ft 443 kts 279°
2026-05-06 11:36 56.49243 -19.90459 35934 ft 443 kts 279°
2026-05-06 11:37 56.50280 -20.01497 35936 ft 443 kts 283°
2026-05-06 11:37 56.51751 -20.12294 35933 ft 445 kts 284°
2026-05-06 11:38 56.53296 -20.23188 35938 ft 445 kts 284°
2026-05-06 11:38 56.54831 -20.34068 35954 ft 444 kts 284°
2026-05-06 11:39 56.56350 -20.44920 35950 ft 443 kts 284°
2026-05-06 11:39 56.57859 -20.55786 35943 ft 443 kts 284°
2026-05-06 11:40 56.59359 -20.66653 35950 ft 443 kts 284°
2026-05-06 11:40 56.60850 -20.77535 35940 ft 445 kts 284°
2026-05-06 11:41 56.62330 -20.88415 35953 ft 446 kts 283°
2026-05-06 11:41 56.63810 -20.99379 35954 ft 447 kts 283°
2026-05-06 11:42 56.65283 -21.10376 35955 ft 447 kts 283°
2026-05-06 11:42 56.66746 -21.21369 35977 ft 446 kts 283°
2026-05-06 11:43 56.68196 -21.32343 35963 ft 445 kts 283°
2026-05-06 11:43 56.69634 -21.43320 35943 ft 445 kts 283°
2026-05-06 11:44 56.71776 -21.59805 35965 ft 448 kts 283°
2026-05-06 11:44 56.73200 -21.70882 35975 ft 448 kts 283°
2026-05-06 11:45 56.74614 -21.81959 35979 ft 448 kts 283°
2026-05-06 11:45 56.76017 -21.93038 35976 ft 448 kts 282°
2026-05-06 11:46 56.77414 -22.04152 35985 ft 448 kts 282°
2026-05-06 11:46 56.78800 -22.15264 35972 ft 449 kts 282°
2026-05-06 11:47 56.80180 -22.26407 35979 ft 451 kts 282°
2026-05-06 11:47 56.81553 -22.37599 35992 ft 451 kts 282°
2026-05-06 11:48 56.82915 -22.48785 35992 ft 451 kts 282°
2026-05-06 11:48 56.84259 -22.59916 35992 ft 451 kts 282°
2026-05-06 11:49 56.85602 -22.71124 35992 ft 451 kts 282°
2026-05-06 11:49 56.86933 -22.82333 35992 ft 451 kts 282°
2026-05-06 11:50 56.88263 -22.93599 35996 ft 454 kts 281°
2026-05-06 11:50 56.89586 -23.04928 36022 ft 454 kts 281°
2026-05-06 11:51 56.90895 -23.16237 36014 ft 453 kts 281°
2026-05-06 11:51 56.92193 -23.27532 36012 ft 453 kts 281°
2026-05-06 11:52 56.93482 -23.38848 36009 ft 453 kts 281°
2026-05-06 11:52 56.94760 -23.50167 36017 ft 453 kts 281°
2026-05-06 11:53 56.96022 -23.61438 36007 ft 455 kts 281°
2026-05-06 11:53 56.97286 -23.72831 36023 ft 456 kts 281°
2026-05-06 11:54 56.98544 -23.84265 36028 ft 456 kts 281°
2026-05-06 11:54 56.99789 -23.95695 36028 ft 456 kts 281°
2026-05-06 11:55 57.01022 -24.07113 36036 ft 455 kts 281°
2026-05-06 11:55 57.02246 -24.18546 36034 ft 455 kts 280°
2026-05-06 11:56 57.03451 -24.29907 36035 ft 456 kts 280°
2026-05-06 11:56 57.04656 -24.41376 36039 ft 457 kts 280°
2026-05-06 11:57 57.05853 -24.52876 36041 ft 458 kts 280°
2026-05-06 11:57 57.07040 -24.64388 36041 ft 458 kts 280°
2026-05-06 11:58 57.08216 -24.75904 36042 ft 458 kts 280°
2026-05-06 11:58 57.09381 -24.87416 36050 ft 458 kts 280°
2026-05-06 11:59 57.10535 -24.98954 36056 ft 457 kts 280°
2026-05-06 11:59 57.11678 -25.10471 36051 ft 457 kts 279°
2026-05-06 12:00 57.12811 -25.22005 36060 ft 457 kts 279°
2026-05-06 12:00 57.13934 -25.33554 36063 ft 456 kts 279°
2026-05-06 12:01 57.15044 -25.45081 36070 ft 457 kts 279°
2026-05-06 12:01 57.16137 -25.56559 36069 ft 457 kts 279°
2026-05-06 12:02 57.17226 -25.68103 36069 ft 457 kts 279°
2026-05-06 12:02 57.18307 -25.79680 36069 ft 459 kts 279°
2026-05-06 12:03 57.19382 -25.91329 36087 ft 460 kts 279°
2026-05-06 12:03 57.20445 -26.02968 36087 ft 459 kts 279°
2026-05-06 12:04 57.21498 -26.14604 36086 ft 459 kts 279°
2026-05-06 12:04 57.22540 -26.26253 36085 ft 459 kts 279°
2026-05-06 12:05 57.23569 -26.37888 36096 ft 459 kts 278°
2026-05-06 12:05 57.24583 -26.49479 36085 ft 460 kts 278°
2026-05-06 12:06 57.25596 -26.61189 36100 ft 462 kts 278°
2026-05-06 12:06 57.26602 -26.72948 36101 ft 462 kts 278°
2026-05-06 12:07 57.27596 -26.84706 36114 ft 462 kts 278°
2026-05-06 12:07 57.28577 -26.96466 36114 ft 461 kts 278°
2026-05-06 12:08 57.29541 -27.08134 36113 ft 461 kts 278°
2026-05-06 12:08 57.30501 -27.19889 36098 ft 461 kts 278°
2026-05-06 12:09 57.31456 -27.31707 36117 ft 464 kts 278°
2026-05-06 12:09 57.32399 -27.43554 36120 ft 465 kts 278°
2026-05-06 12:10 57.33332 -27.55416 36129 ft 465 kts 278°
2026-05-06 12:10 57.34256 -27.67301 36128 ft 465 kts 277°
2026-05-06 12:11 57.35166 -27.79170 36134 ft 465 kts 277°
2026-05-06 12:11 57.36057 -27.90968 36139 ft 464 kts 278°
2026-05-06 12:12 57.36948 -28.02846 36133 ft 466 kts 277°
2026-05-06 12:12 57.37828 -28.14772 36139 ft 466 kts 277°
2026-05-06 12:13 57.38698 -28.26725 36141 ft 467 kts 277°
2026-05-06 12:13 57.39557 -28.38674 36149 ft 466 kts 277°
2026-05-06 12:14 57.40397 -28.50535 36152 ft 466 kts 277°
2026-05-06 12:14 57.41233 -28.62501 36152 ft 467 kts 277°
2026-05-06 12:15 57.42061 -28.74476 36146 ft 466 kts 277°
2026-05-06 12:15 57.42871 -28.86484 36158 ft 468 kts 277°
2026-05-06 12:16 57.43677 -28.98515 36161 ft 468 kts 277°
2026-05-06 12:16 57.44470 -29.10518 36157 ft 466 kts 277°
2026-05-06 12:17 57.45246 -29.22445 36162 ft 469 kts 277°
2026-05-06 12:17 57.46016 -29.34486 36169 ft 468 kts 276°
2026-05-06 12:18 57.46780 -29.46593 36154 ft 469 kts 276°
2026-05-06 12:18 57.47531 -29.58707 36176 ft 474 kts 276°
2026-05-06 12:19 57.48267 -29.70765 36175 ft 469 kts 276°
2026-05-06 12:19 57.48988 -29.82854 36176 ft 470 kts 276°
2026-05-06 12:20 57.49744 -29.94971 36178 ft 470 kts 278°
2026-05-06 12:20 57.50985 -30.06882 36180 ft 466 kts 284°
2026-05-06 12:21 57.52627 -30.18637 36175 ft 468 kts 284°
2026-05-06 12:21 57.54300 -30.30479 36188 ft 476 kts 284°
2026-05-06 12:22 57.55979 -30.42458 36188 ft 478 kts 284°
2026-05-06 12:22 57.57642 -30.54442 36192 ft 476 kts 284°
2026-05-06 12:23 57.59285 -30.66397 36200 ft 474 kts 284°
2026-05-06 12:23 57.60906 -30.78259 36195 ft 476 kts 284°
2026-05-06 12:24 57.62526 -30.90218 36196 ft 472 kts 284°
2026-05-06 12:24 57.63860 -31.00131 36203 ft 470 kts 284°
2026-05-06 12:25 57.65715 -31.14032 36201 ft 478 kts 284°
2026-05-06 12:25 57.67320 -31.26164 36204 ft 482 kts 284°
2026-05-06 12:26 57.68662 -31.36386 36207 ft 481 kts 284°
2026-05-06 12:26 57.70237 -31.48474 36208 ft 480 kts 284°
2026-05-06 12:27 57.71807 -31.60619 36214 ft 481 kts 284°
2026-05-06 12:27 57.73371 -31.72815 36214 ft 483 kts 284°
2026-05-06 12:28 57.74925 -31.85050 36217 ft 481 kts 283°
2026-05-06 12:28 57.76466 -31.97291 36218 ft 485 kts 284°
2026-05-06 12:29 57.78013 -32.09667 36223 ft 487 kts 283°
2026-05-06 12:29 57.79548 -32.22052 36226 ft 486 kts 283°
2026-05-06 12:30 57.81061 -32.34383 36223 ft 484 kts 283°
2026-05-06 12:30 57.82561 -32.46714 36227 ft 483 kts 283°
2026-05-06 12:31 57.84050 -32.59049 36222 ft 484 kts 283°
2026-05-06 12:31 57.85516 -32.71337 36225 ft 485 kts 283°
2026-05-06 12:32 57.86978 -32.83698 36236 ft 483 kts 283°
2026-05-06 12:32 57.88430 -32.96052 36231 ft 484 kts 283°
2026-05-06 12:33 57.89864 -33.08386 36236 ft 482 kts 283°
2026-05-06 12:33 57.91282 -33.20703 36237 ft 480 kts 283°
2026-05-06 12:34 57.92681 -33.32925 36237 ft 478 kts 283°
2026-05-06 12:34 57.94081 -33.45214 36238 ft 480 kts 283°
2026-05-06 12:35 57.95468 -33.57578 36242 ft 482 kts 283°